period_start,C,m1,H,J0,J1,J2,J3,J4,J5,JA,JB,JC,JD,JJ,JK,JN,#
2014-01-24 00:00:50,0.11,0.95,0.00,16.71,22.79,26.21,6.18,30.58,1015.64,2057.00,3199.84,3075.74,3336.69,349.65,330.34,6.62,0000 0000 0000 0000 000000
2014-01-24 00:01:51,0.24,0.95,0.00,16.69,22.79,26.27,6.16,30.63,1015.63,2057.00,3199.32,3075.29,3336.26,348.58,329.35,6.63,0000 0000 0000 0000 000000
2014-01-24 00:02:51,0.20,0.96,0.00,16.69,22.79,26.29,6.25,30.54,1015.62,2057.00,3199.03,3075.08,3336.01,350.12,330.81,6.63,0000 0000 0000 0000 000000
2014-01-24 00:03:51,0.12,0.96,0.00,16.69,22.79,26.28,6.18,30.46,1015.63,2057.00,3198.47,3074.65,3335.55,349.74,330.45,6.64,0000 0000 0000 0000 000000
2014-01-24 00:04:51,0.26,0.96,0.00,16.70,22.78,26.27,6.11,30.58,1015.62,2057.00,3198.03,3074.24,3335.20,349.96,330.65,6.65,0000 0000 0000 0000 000000
2014-01-24 00:05:51,0.19,0.96,0.00,16.70,22.78,26.26,6.22,30.46,1015.61,2057.00,3197.43,3073.98,3334.85,349.42,330.13,6.65,0000 0000 0000 0000 000000
2014-01-24 00:06:52,0.19,0.96,0.00,16.71,22.78,26.22,6.09,30.54,1015.60,2057.00,3197.13,3073.51,3334.38,349.89,330.56,6.66,0000 0000 0000 0000 000000
2014-01-24 00:07:52,0.22,0.96,0.00,16.72,22.78,26.18,6.13,30.21,1015.60,2057.00,3196.61,3073.19,3334.13,350.21,330.55,6.66,0000 0000 0000 0000 000000
2014-01-24 00:08:52,0.17,0.96,0.00,16.71,22.78,26.23,6.09,30.42,1015.62,2057.00,3196.23,3073.03,3333.86,349.72,330.40,6.67,0000 0000 0000 0000 000000
2014-01-24 00:09:52,0.13,0.96,0.00,16.72,22.78,26.20,6.03,30.29,1015.63,2057.00,3195.74,3072.63,3333.36,349.32,330.03,6.68,0000 0000 0000 0000 000000
2014-01-24 00:10:53,0.25,0.96,0.00,16.72,22.78,26.18,6.28,30.46,1015.61,2057.00,3195.27,3072.25,3333.13,350.04,330.70,6.68,0000 0000 0000 0000 000000
2014-01-24 00:11:53,0.16,0.97,0.00,16.72,22.78,26.19,6.38,30.46,1015.60,2057.00,3194.84,3072.03,3332.81,351.17,331.77,6.69,0000 0000 0000 0000 000000
2014-01-24 00:12:53,0.18,0.97,0.00,16.72,22.78,26.17,6.26,30.38,1015.63,2057.00,3194.32,3071.59,3332.31,349.51,330.20,6.69,0000 0000 0000 0000 000000
2014-01-24 00:13:53,0.23,0.97,0.00,16.72,22.77,26.10,6.15,30.38,1015.64,2057.00,3193.89,3071.22,3332.06,350.31,330.96,6.70,0000 0000 0000 0000 000000
2014-01-24 00:14:53,0.18,0.97,0.00,16.72,22.78,26.19,6.21,30.46,1015.64,2057.00,3193.34,3071.08,3331.53,350.21,330.87,6.70,0000 0000 0000 0000 000000
2014-01-24 00:15:54,0.17,0.97,0.00,16.72,22.77,26.17,6.14,30.33,1015.64,2057.00,3192.95,3070.78,3331.19,349.93,330.59,6.71,0000 0000 0000 0000 000000
2014-01-24 00:16:54,0.19,0.97,0.00,16.72,22.77,26.13,6.30,30.25,1015.64,2057.00,3192.40,3070.31,3330.94,349.02,329.74,6.72,0000 0000 0000 0000 000000
2014-01-24 00:17:54,0.21,0.97,0.00,16.72,22.77,26.15,6.17,30.42,1015.63,2057.00,3192.03,3070.09,3330.42,350.29,330.93,6.72,0000 0000 0000 0000 000000
2014-01-24 00:18:54,0.17,0.97,0.00,16.74,22.77,26.15,6.21,30.38,1015.60,2057.00,3191.43,3069.62,3330.14,350.88,331.12,6.73,0000 0000 0000 0000 000000
2014-01-24 00:19:55,0.24,0.98,0.00,16.74,22.77,26.16,6.13,30.25,1015.61,2057.00,3191.07,3069.23,3329.79,350.03,330.22,6.73,0000 0000 0000 0000 000000
2014-01-24 00:20:55,0.18,0.98,0.00,16.74,22.77,26.16,6.01,30.29,1015.62,2057.00,3190.52,3069.07,3329.33,349.29,330.21,6.74,0000 0000 0000 0000 000000
2014-01-24 00:21:55,0.17,0.98,0.00,16.74,22.77,26.23,6.13,30.33,1015.61,2057.00,3190.15,3068.65,3329.12,350.47,330.81,6.75,0000 0000 0000 0000 000000
2014-01-24 00:22:55,0.19,0.98,0.00,16.75,22.77,26.23,6.12,30.29,1015.61,2057.01,3189.61,3068.24,3328.78,349.89,330.52,6.75,0000 0000 0000 0000 000000
2014-01-24 00:23:56,0.23,0.98,0.00,16.75,22.77,26.17,6.17,30.46,1015.62,2057.02,3189.19,3068.09,3328.32,349.41,330.07,6.76,0000 0000 0000 0000 000000
2014-01-24 00:24:56,0.12,0.98,0.00,16.74,22.77,26.14,6.27,30.17,1015.61,2057.01,3188.68,3067.84,3328.10,350.72,331.31,6.76,0000 0000 0000 0000 000000
2014-01-24 00:25:56,0.17,0.98,0.00,16.74,22.77,26.14,6.10,30.33,1015.62,2057.00,3188.25,3067.39,3327.71,349.44,330.11,6.77,0000 0000 0000 0000 000000
2014-01-24 00:26:57,0.23,0.98,0.00,16.74,22.77,26.16,6.14,30.17,1015.63,2057.00,3187.75,3067.13,3327.26,349.37,329.80,6.77,0000 0000 0000 0000 000000
2014-01-24 00:27:57,0.18,0.98,0.00,16.74,22.77,26.13,6.20,30.33,1015.63,2057.00,3187.27,3066.77,3327.08,350.22,331.07,6.78,0000 0000 0000 0000 000000
2014-01-24 00:28:57,0.18,0.99,0.00,16.74,22.77,26.17,6.07,30.46,1015.61,2057.00,3186.83,3066.30,3326.64,349.33,330.30,6.79,0000 0000 0000 0000 000000
2014-01-24 00:29:57,0.25,0.99,0.00,16.74,22.77,26.20,6.07,30.25,1015.60,2057.00,3186.32,3066.11,3326.24,349.08,329.77,6.79,0000 0000 0000 0000 000000
2014-01-24 00:30:57,0.14,0.99,0.00,16.74,22.77,26.24,6.26,30.38,1015.61,2057.00,3185.96,3065.73,3326.08,350.19,330.82,6.80,0000 0000 0000 0000 000000
2014-01-24 00:31:57,0.18,0.99,0.00,16.74,22.77,26.24,6.12,30.21,1015.62,2057.00,3185.40,3065.30,3325.64,349.94,330.58,6.80,0000 0000 0000 0000 000000
2014-01-24 00:32:58,0.24,0.99,0.00,16.74,22.77,26.21,6.39,30.21,1015.63,2057.00,3185.01,3065.11,3325.24,350.91,331.59,6.81,0000 0000 0000 0000 000000
2014-01-24 00:33:58,0.14,0.99,0.00,16.74,22.77,26.18,6.09,29.96,1015.61,2057.00,3184.42,3064.82,3325.04,349.85,330.49,6.82,0000 0000 0000 0000 000000
2014-01-24 00:34:58,0.19,0.99,0.00,16.75,22.77,26.16,6.02,30.08,1015.60,2057.00,3184.10,3064.34,3324.68,349.18,330.25,6.82,0000 0000 0000 0000 000000
2014-01-24 00:35:59,0.21,0.99,0.00,16.76,22.77,26.20,6.37,30.21,1015.62,2057.00,3183.56,3064.12,3324.26,351.65,332.17,6.83,0000 0000 0000 0000 000000
2014-01-24 00:36:59,0.18,0.99,0.00,16.75,22.77,26.14,6.19,30.25,1015.64,2057.00,3183.16,3063.81,3324.01,349.52,329.98,6.83,0000 0000 0000 0000 000000
2014-01-24 00:37:59,0.16,1.00,0.00,16.77,22.77,26.17,6.35,30.21,1015.64,2057.00,3182.55,3063.32,3323.49,350.60,331.25,6.84,0000 0000 0000 0000 000000
2014-01-24 00:39:00,0.29,1.00,0.00,16.78,22.77,26.10,6.08,30.21,1015.64,2057.00,3182.19,3063.10,3323.18,349.08,329.92,6.85,0000 0000 0000 0000 000000
2014-01-24 00:40:00,0.12,1.00,0.00,16.77,22.77,26.19,6.40,30.29,1015.64,2057.00,3181.72,3062.82,3322.93,350.13,330.27,6.85,0000 0000 0000 0000 000000
2014-01-24 00:41:00,0.18,1.00,0.00,16.77,22.77,26.20,6.24,30.38,1015.64,2057.00,3181.26,3062.34,3322.43,350.05,330.66,6.86,0000 0000 0000 0000 000000
2014-01-24 00:42:01,0.24,1.00,0.00,16.77,22.77,26.21,6.22,30.29,1015.64,2057.01,3180.82,3062.12,3322.15,350.15,330.76,6.86,0000 0000 0000 0000 000000
2014-01-24 00:43:01,0.16,1.00,0.00,16.77,22.77,26.25,6.30,30.33,1015.64,2057.01,3180.31,3061.92,3321.91,349.79,330.42,6.87,0000 0000 0000 0000 000000
2014-01-24 00:44:01,0.14,1.00,0.00,16.78,22.77,26.28,6.18,30.17,1015.64,2057.01,3179.92,3061.39,3321.38,350.31,330.89,6.87,0000 0000 0000 0000 000000
2014-01-24 00:45:02,0.27,1.00,0.00,16.79,22.77,26.27,5.92,30.17,1015.64,2057.00,3179.36,3061.13,3321.11,348.92,329.57,6.88,0000 0000 0000 0000 000000
2014-01-24 00:46:02,0.16,1.00,0.00,16.79,22.77,26.25,6.05,30.13,1015.64,2057.00,3178.94,3060.72,3320.71,349.49,330.10,6.89,0000 0000 0000 0000 000000
2014-01-24 00:47:02,0.24,1.01,0.00,16.79,22.77,26.23,6.32,30.33,1015.64,2057.00,3178.37,3060.28,3320.26,350.39,330.95,6.89,0000 0000 0000 0000 000000
2014-01-24 00:48:02,0.23,1.01,0.00,16.79,22.77,26.18,6.16,30.29,1015.64,2057.00,3178.03,3060.07,3320.06,350.17,330.84,6.90,0000 0000 0000 0000 000000
2014-01-24 00:49:02,0.10,1.01,0.00,16.79,22.77,26.21,6.17,30.42,1015.64,2057.00,3177.44,3059.71,3319.57,349.72,330.33,6.90,0000 0000 0000 0000 000000
2014-01-24 00:50:02,0.26,1.01,0.00,16.77,22.77,26.22,6.40,30.38,1015.64,2057.00,3177.10,3059.29,3319.20,350.51,331.09,6.91,0000 0000 0000 0000 000000
2014-01-24 00:51:03,0.19,1.01,0.00,16.78,22.77,26.20,6.23,30.50,1015.64,2057.00,3176.58,3059.08,3318.97,349.53,330.42,6.92,0000 0000 0000 0000 000000
2014-01-24 00:52:03,0.15,1.01,0.00,16.79,22.77,26.21,6.31,30.42,1015.64,2057.00,3176.17,3058.67,3318.45,349.81,330.09,6.92,0000 0000 0000 0000 000000
2014-01-24 00:53:03,0.25,1.01,0.00,16.79,22.77,26.23,6.03,30.29,1015.63,2057.00,3175.56,3058.25,3318.16,349.49,330.10,6.93,0000 0000 0000 0000 000000
2014-01-24 00:54:03,0.22,1.01,0.00,16.79,22.77,26.25,6.05,30.33,1015.63,2057.00,3175.13,3058.06,3317.70,349.39,330.01,6.93,0000 0000 0000 0000 000000
2014-01-24 00:55:04,0.17,1.02,0.00,16.79,22.77,26.26,6.03,30.33,1015.63,2057.00,3174.63,3057.69,3317.26,349.30,329.92,6.94,0000 0000 0000 0000 000000
2014-01-24 00:56:04,0.22,1.02,0.00,16.78,22.77,26.22,6.28,30.25,1015.62,2057.00,3174.23,3057.28,3317.09,350.78,331.32,6.94,0000 0000 0000 0000 000000
2014-01-24 00:57:04,0.17,1.02,0.00,16.79,22.77,26.22,6.23,30.29,1015.63,2057.00,3173.77,3057.09,3316.72,349.61,329.99,6.95,0000 0000 0000 0000 000000
2014-01-24 00:58:05,0.17,1.02,0.00,16.79,22.77,26.24,6.23,30.42,1015.63,2057.00,3173.30,3056.75,3316.28,349.89,330.61,6.96,0000 0000 0000 0000 000000
2014-01-24 00:59:05,0.21,1.02,0.00,16.79,22.77,26.25,6.29,30.50,1015.63,2057.00,3172.92,3056.29,3316.09,349.84,330.75,6.96,0000 0000 0000 0000 000000
2014-01-24 01:00:05,0.18,1.02,0.00,16.81,22.77,26.27,6.32,30.38,1015.62,2057.00,3172.35,3056.08,3315.72,350.06,330.61,6.97,0000 0000 0000 0000 000000
2014-01-24 01:01:05,0.18,1.02,0.00,16.79,22.77,26.25,6.22,30.50,1015.62,2057.00,3171.92,3055.76,3315.26,349.55,330.15,6.97,0000 0000 0000 0000 000000
2014-01-24 01:02:06,0.20,1.02,0.00,16.81,22.77,26.23,6.17,30.58,1015.60,2057.00,3171.36,3055.32,3315.02,350.44,330.97,6.98,0000 0000 0000 0000 000000
2014-01-24 01:03:06,0.20,1.02,0.00,16.82,22.77,26.27,6.15,30.29,1015.62,2057.00,3170.96,3055.09,3314.48,350.18,330.72,6.99,0000 0000 0000 0000 000000
2014-01-24 01:04:06,0.19,1.03,0.00,16.82,22.77,26.25,6.28,30.29,1015.63,2057.00,3170.40,3054.69,3314.17,350.86,331.37,6.99,0000 0000 0000 0000 000000
2014-01-24 01:05:06,0.23,1.03,0.00,16.81,22.77,26.26,6.19,30.38,1015.60,2057.00,3170.06,3054.25,3313.97,350.52,331.04,7.00,0000 0000 0000 0000 000000
2014-01-24 01:06:06,0.17,1.03,0.00,16.81,22.77,26.25,6.17,30.38,1015.58,2057.00,3169.49,3054.08,3313.48,349.27,329.85,7.00,0000 0000 0000 0000 000000
2014-01-24 01:07:07,0.20,1.03,0.00,16.82,22.77,26.23,6.27,30.50,1015.60,2057.00,3169.11,3053.68,3313.17,350.30,330.83,7.01,0000 0000 0000 0000 000000
2014-01-24 01:08:07,0.20,1.03,0.00,16.82,22.77,26.24,6.28,30.46,1015.60,2057.00,3168.52,3053.25,3312.83,350.41,331.18,7.01,0000 0000 0000 0000 000000
2014-01-24 01:09:07,0.22,1.03,0.00,16.82,22.77,26.26,6.22,30.46,1015.58,2057.00,3168.14,3053.05,3312.32,350.16,330.58,7.02,0000 0000 0000 0000 000000
2014-01-24 01:10:07,0.18,1.03,0.00,16.83,22.77,26.23,6.08,30.42,1015.59,2057.00,3167.55,3052.53,3312.11,349.70,330.24,7.03,0000 0000 0000 0000 000000
2014-01-24 01:11:07,0.24,1.03,0.00,16.82,22.77,26.21,6.27,30.33,1015.58,2057.00,3167.16,3052.19,3311.78,349.97,330.51,7.03,0000 0000 0000 0000 000000
2014-01-24 01:12:08,0.18,1.03,0.00,16.82,22.77,26.22,6.26,30.50,1015.57,2057.00,3166.60,3052.05,3311.31,350.94,331.34,7.04,0000 0000 0000 0000 000000
2014-01-24 01:13:08,0.18,1.04,0.00,16.82,22.77,26.18,6.20,30.29,1015.57,2057.00,3166.18,3051.55,3311.07,350.20,330.96,7.04,0000 0000 0000 0000 000000
2014-01-24 01:14:08,0.22,1.04,0.00,16.82,22.77,26.21,6.08,30.33,1015.55,2057.00,3165.59,3051.20,3310.52,349.07,329.65,7.05,0000 0000 0000 0000 000000
2014-01-24 01:15:08,0.23,1.04,0.00,16.82,22.77,26.19,6.21,30.46,1015.51,2057.00,3165.20,3051.02,3310.19,350.50,330.88,7.06,0000 0000 0000 0000 000000
2014-01-24 01:16:09,0.14,1.04,0.00,16.82,22.77,26.21,6.08,30.46,1015.56,2057.00,3164.84,3050.54,3310.02,349.44,330.00,7.06,0000 0000 0000 0000 000000
2014-01-24 01:17:09,0.20,1.04,0.00,16.82,22.77,26.24,6.18,30.21,1015.52,2057.00,3164.33,3050.19,3309.51,350.10,329.93,7.07,0000 0000 0000 0000 000000
2014-01-24 01:18:09,0.21,1.04,0.00,16.81,22.77,26.22,6.17,30.38,1015.53,2057.00,3163.92,3050.00,3309.18,349.58,330.23,7.07,0000 0000 0000 0000 000000
2014-01-24 01:19:10,0.15,1.04,0.00,16.82,22.77,26.23,6.23,30.38,1015.46,2057.00,3163.37,3049.50,3308.92,349.10,329.65,7.08,0000 0000 0000 0000 000000
2014-01-24 01:20:10,0.23,1.04,0.00,16.81,22.77,26.23,6.25,30.33,1015.29,2057.00,3162.96,3049.18,3308.40,350.57,331.17,7.09,0000 0000 0000 0000 000000
2014-01-24 01:21:10,0.19,1.05,0.00,16.82,22.77,26.22,6.13,30.46,1015.22,2057.00,3162.37,3048.99,3308.14,349.87,330.29,7.09,0000 0000 0000 0000 000000
2014-01-24 01:22:10,0.16,1.05,0.00,16.82,22.77,26.24,6.13,30.25,1015.21,2057.00,3162.02,3048.50,3307.80,350.13,330.54,7.10,0000 0000 0000 0000 000000
2014-01-24 01:23:11,0.22,1.05,0.00,16.81,22.77,26.23,6.23,30.29,1015.22,2057.00,3161.44,3048.18,3307.32,350.46,330.87,7.10,0000 0000 0000 0000 000000
2014-01-24 01:24:11,0.23,1.05,0.00,16.81,22.77,26.27,6.11,30.04,1015.20,2057.00,3160.99,3047.91,3307.03,351.09,330.92,7.11,0000 0000 0000 0000 000000
2014-01-24 01:25:11,0.17,1.05,0.00,16.83,22.77,26.26,6.12,30.33,1015.23,2057.00,3160.40,3047.39,3306.49,348.93,329.39,7.11,0000 0000 0000 0000 000000
2014-01-24 01:26:12,0.28,1.05,0.00,16.84,22.77,26.21,6.23,30.50,1015.20,2057.00,3160.12,3047.13,3306.17,350.16,330.54,7.12,0000 0000 0000 0000 000000
2014-01-24 01:27:12,0.14,1.05,0.00,16.85,22.77,26.20,6.08,30.38,1015.21,2057.00,3159.61,3046.91,3305.93,349.61,330.01,7.13,0000 0000 0000 0000 000000
2014-01-24 01:28:12,0.16,1.05,0.00,16.84,22.77,26.24,6.08,30.29,1015.24,2057.00,3159.22,3046.40,3305.40,348.84,329.50,7.13,0000 0000 0000 0000 000000
2014-01-24 01:29:12,0.26,1.06,0.00,16.84,22.77,26.30,6.04,30.38,1015.24,2057.00,3158.71,3046.14,3305.14,349.57,330.00,7.14,0000 0000 0000 0000 000000
2014-01-24 01:30:13,0.17,1.06,0.00,16.84,22.77,26.33,6.27,30.58,1015.21,2057.00,3158.25,3045.86,3304.85,350.42,330.79,7.14,0000 0000 0000 0000 000000
2014-01-24 01:31:13,0.17,1.06,0.00,16.84,22.78,26.29,6.33,30.29,1015.17,2057.00,3157.77,3045.36,3304.35,350.72,330.87,7.15,0000 0000 0000 0000 000000
2014-01-24 01:32:13,0.26,1.06,0.00,16.82,22.78,26.27,6.22,30.33,1015.18,2057.00,3157.29,3045.12,3304.11,350.06,330.45,7.16,0000 0000 0000 0000 000000
2014-01-24 01:33:13,0.16,1.06,0.00,16.84,22.78,26.28,6.09,30.29,1015.18,2057.00,3156.86,3044.84,3303.67,349.84,330.23,7.16,0000 0000 0000 0000 000000
2014-01-24 01:34:14,0.19,1.06,0.00,16.84,22.78,26.30,6.07,30.25,1015.17,2057.00,3156.34,3044.36,3303.26,350.19,330.55,7.17,0000 0000 0000 0000 000000
2014-01-24 01:35:14,0.25,1.06,0.00,16.84,22.78,26.29,6.26,30.25,1015.16,2057.00,3155.98,3044.13,3303.03,350.35,330.71,7.17,0000 0000 0000 0000 000000
2014-01-24 01:36:14,0.13,1.06,0.00,16.84,22.79,26.26,6.27,30.21,1015.15,2057.00,3155.41,3043.87,3302.53,349.68,329.86,7.18,0000 0000 0000 0000 000000
2014-01-24 01:37:15,0.21,1.06,0.00,16.84,22.79,26.25,6.19,30.21,1015.15,2057.00,3155.03,3043.37,3302.19,350.46,331.12,7.18,0000 0000 0000 0000 000000
2014-01-24 01:38:15,0.22,1.07,0.00,16.84,22.79,26.27,6.30,30.25,1015.15,2057.00,3154.45,3043.11,3301.87,350.70,331.14,7.19,0000 0000 0000 0000 000000
2014-01-24 01:39:15,0.18,1.07,0.00,16.84,22.79,26.24,6.09,30.38,1015.15,2057.00,3154.06,3042.71,3301.34,349.70,330.08,7.20,0000 0000 0000 0000 000000
2014-01-24 01:40:15,0.21,1.07,0.00,16.84,22.79,26.25,6.05,30.29,1015.15,2057.00,3153.49,3042.28,3301.12,349.36,329.76,7.20,0000 0000 0000 0000 000000
2014-01-24 01:41:16,0.21,1.07,0.00,16.84,22.79,26.26,6.25,30.42,1015.15,2057.00,3153.13,3042.07,3300.76,350.07,330.43,7.21,0000 0000 0000 0000 000000
2014-01-24 01:42:16,0.16,1.07,0.00,16.84,22.79,26.27,6.30,30.46,1015.15,2057.00,3152.59,3041.73,3300.30,350.06,330.08,7.21,0000 0000 0000 0000 000000
2014-01-24 01:43:16,0.21,1.07,0.00,16.84,22.79,26.29,6.19,30.33,1015.15,2057.00,3152.19,3041.28,3300.09,351.25,331.55,7.22,0000 0000 0000 0000 000000
2014-01-24 01:44:16,0.20,1.07,0.00,16.84,22.79,26.30,6.18,30.33,1015.15,2057.00,3151.65,3041.09,3299.64,350.77,331.10,7.23,0000 0000 0000 0000 000000
2014-01-24 01:45:17,0.17,1.07,0.00,16.84,22.79,26.28,6.19,30.63,1015.15,2057.00,3151.23,3040.81,3299.25,350.01,329.59,7.23,0000 0000 0000 0000 000000
2014-01-24 01:46:17,0.18,1.07,0.00,16.84,22.79,26.32,6.36,30.79,1015.15,2057.00,3150.84,3040.31,3299.08,350.39,330.73,7.24,0000 0000 0000 0000 000000
2014-01-24 01:47:17,0.21,1.08,0.00,16.84,22.79,26.31,6.15,30.75,1015.15,2057.00,3150.34,3040.11,3298.67,349.04,329.45,7.24,0000 0000 0000 0000 000000
2014-01-24 01:48:18,0.16,1.08,0.00,16.84,22.79,26.31,6.17,30.63,1015.15,2057.00,3149.99,3039.90,3298.24,349.70,330.08,7.25,0000 0000 0000 0000 000000
2014-01-24 01:49:18,0.17,1.08,0.00,16.84,22.79,26.32,6.21,30.29,1015.15,2057.00,3149.42,3039.41,3298.06,351.20,331.51,7.25,0000 0000 0000 0000 000000
2014-01-24 01:50:18,0.22,1.08,0.00,16.84,22.79,26.29,6.09,30.38,1015.14,2057.00,3149.13,3039.14,3297.68,349.18,329.48,7.26,0000 0000 0000 0000 000000
2014-01-24 01:51:18,0.16,1.08,0.00,16.84,22.79,26.26,6.02,30.38,1015.15,2057.00,3148.59,3038.84,3297.26,349.88,330.03,7.27,0000 0000 0000 0000 000000
2014-01-24 01:52:18,0.20,1.08,0.00,16.85,22.79,26.29,6.09,30.38,1015.15,2057.00,3148.20,3038.39,3297.07,349.04,329.32,7.27,0000 0000 0000 0000 000000
2014-01-24 01:53:19,0.19,1.08,0.00,16.85,22.79,26.29,6.18,30.21,1015.15,2057.00,3147.78,3038.14,3296.62,350.16,330.51,7.28,0000 0000 0000 0000 000000
2014-01-24 01:54:19,0.17,1.08,0.00,16.87,22.79,26.29,6.16,30.42,1015.15,2057.00,3147.29,3037.87,3296.22,350.15,329.82,7.28,0000 0000 0000 0000 000000
2014-01-24 01:55:19,0.20,1.08,0.00,16.87,22.80,26.32,6.18,30.33,1015.15,2057.00,3146.83,3037.35,3296.05,350.18,330.51,7.29,0000 0000 0000 0000 000000
2014-01-24 01:56:19,0.21,1.09,0.00,16.87,22.80,26.35,6.27,30.50,1015.15,2057.00,3146.31,3037.12,3295.62,350.98,330.96,7.30,0000 0000 0000 0000 000000
2014-01-24 01:57:20,0.18,1.09,0.00,16.87,22.80,26.32,6.27,30.38,1015.15,2057.00,3145.94,3036.81,3295.22,350.57,330.68,7.30,0000 0000 0000 0000 000000
2014-01-24 01:58:20,0.17,1.09,0.00,16.89,22.80,26.27,6.26,30.42,1015.15,2056.99,3145.40,3036.36,3295.02,350.84,331.51,7.31,0000 0000 0000 0000 000000
2014-01-24 01:59:20,0.20,1.09,0.00,16.89,22.80,26.25,6.27,30.46,1015.15,2056.99,3145.12,3036.13,3294.54,350.45,330.52,7.31,0000 0000 0000 0000 000000
2014-01-24 02:00:20,0.16,1.09,0.00,16.87,22.81,26.22,6.17,30.50,1015.15,2056.99,3144.62,3035.94,3294.19,350.53,330.83,7.32,0000 0000 0000 0000 000000
2014-01-24 02:01:20,0.16,1.09,0.00,16.88,22.81,26.24,6.23,30.38,1015.15,2056.99,3144.21,3035.49,3293.93,349.98,330.31,7.33,0000 0000 0000 0000 000000
2014-01-24 02:02:21,0.21,1.09,0.00,16.87,22.82,26.24,6.25,30.58,1015.15,2056.99,3143.64,3035.18,3293.41,350.72,330.59,7.33,0000 0000 0000 0000 000000
2014-01-24 02:03:21,0.21,1.09,0.00,16.87,22.82,26.28,6.14,30.42,1015.15,2056.99,3143.22,3034.94,3293.15,350.53,330.84,7.34,0000 0000 0000 0000 000000
2014-01-24 02:04:21,0.17,1.10,0.00,16.86,22.82,26.31,6.11,30.67,1015.15,2056.99,3142.83,3034.44,3292.88,349.51,329.88,7.34,0000 0000 0000 0000 000000
2014-01-24 02:05:22,0.21,1.10,0.00,16.87,22.82,26.29,6.32,30.54,1015.14,2056.99,3142.34,3034.16,3292.38,350.77,331.43,7.35,0000 0000 0000 0000 000000
2014-01-24 02:06:22,0.19,1.10,0.00,16.88,22.82,26.29,6.13,30.50,1015.14,2056.99,3141.93,3033.98,3292.14,349.09,328.98,7.35,0000 0000 0000 0000 000000
2014-01-24 02:07:22,0.16,1.10,0.00,16.88,22.82,26.29,6.17,30.58,1015.15,2056.98,3141.37,3033.47,3291.76,350.08,330.00,7.36,0000 0000 0000 0000 000000
2014-01-24 02:08:22,0.23,1.10,0.00,16.87,22.82,26.27,6.13,30.46,1015.15,2056.99,3140.97,3033.16,3291.30,349.53,329.89,7.37,0000 0000 0000 0000 000000
2014-01-24 02:09:23,0.20,1.10,0.00,16.87,22.82,26.27,6.29,30.50,1015.15,2056.99,3140.39,3032.97,3291.06,350.66,331.27,7.37,0000 0000 0000 0000 000000
2014-01-24 02:10:23,0.18,1.10,0.00,16.87,22.82,26.32,6.20,30.50,1015.14,2056.99,3140.05,3032.46,3290.57,350.57,331.01,7.38,0000 0000 0000 0000 000000
2014-01-24 02:11:23,0.23,1.10,0.00,16.87,22.82,26.31,6.33,30.63,1015.11,2056.99,3139.45,3032.15,3290.20,350.62,330.91,7.38,0000 0000 0000 0000 000000
2014-01-24 02:12:24,0.20,1.10,0.00,16.87,22.82,26.33,6.13,30.50,1015.12,2056.99,3139.06,3031.86,3289.87,350.71,331.00,7.39,0000 0000 0000 0000 000000
2014-01-24 02:13:24,0.19,1.11,0.00,16.88,22.82,26.30,6.13,30.67,1015.13,2056.99,3138.45,3031.37,3289.35,348.58,329.45,7.40,0000 0000 0000 0000 000000
2014-01-24 02:14:24,0.26,1.11,0.00,16.88,22.82,26.30,6.24,30.38,1015.14,2056.99,3138.06,3031.13,3289.12,351.14,331.40,7.40,0000 0000 0000 0000 000000
2014-01-24 02:15:24,0.18,1.11,0.00,16.88,22.82,26.32,6.22,30.46,1015.12,2056.99,3137.46,3030.69,3288.71,350.11,330.43,7.41,0000 0000 0000 0000 000000
2014-01-24 02:16:24,0.22,1.11,0.00,16.87,22.82,26.36,6.25,30.42,1015.09,2056.99,3137.15,3030.28,3288.28,349.58,330.04,7.41,0000 0000 0000 0000 000000
2014-01-24 02:17:25,0.21,1.11,0.00,16.87,22.83,26.36,6.16,30.46,1015.04,2056.99,3136.66,3030.10,3288.08,350.27,330.95,7.42,0000 0000 0000 0000 000000
2014-01-24 02:18:25,0.14,1.11,0.00,16.87,22.83,26.36,6.23,30.38,1014.93,2056.99,3136.22,3029.77,3287.68,349.60,329.89,7.42,0000 0000 0000 0000 000000
2014-01-24 02:19:25,0.19,1.11,0.00,16.87,22.84,26.35,6.18,30.46,1014.87,2056.99,3135.72,3029.30,3287.26,349.08,329.38,7.43,0000 0000 0000 0000 000000
2014-01-24 02:20:26,0.22,1.12,0.00,16.89,22.84,26.35,6.06,30.33,1014.84,2056.99,3135.28,3029.10,3287.05,349.25,329.51,7.44,0000 0000 0000 0000 000000
2014-01-24 02:21:26,0.14,1.12,0.00,16.89,22.84,26.36,6.24,30.33,1014.91,2056.99,3135.04,3028.83,3286.57,350.02,330.61,7.44,0000 0000 0000 0000 000000
2014-01-24 02:22:26,0.18,1.12,0.00,16.90,22.84,26.32,6.23,30.29,1014.95,2056.97,3134.49,3028.34,3286.21,351.06,331.24,7.45,0000 0000 0000 0000 000000
2014-01-24 02:23:26,0.21,1.12,0.00,16.92,22.84,26.33,6.08,30.38,1014.99,2056.99,3134.13,3028.11,3286.00,349.70,329.95,7.45,0000 0000 0000 0000 000000
2014-01-24 02:24:27,0.17,1.12,0.00,16.92,22.84,26.32,6.19,30.21,1014.97,2056.99,3133.63,3027.84,3285.47,350.66,330.84,7.46,0000 0000 0000 0000 000000
2014-01-24 02:25:27,0.22,1.12,0.00,16.91,22.84,26.33,6.23,30.38,1014.98,2056.99,3133.23,3027.35,3285.17,350.13,330.35,7.47,0000 0000 0000 0000 000000
2014-01-24 02:26:27,0.19,1.12,0.00,16.89,22.84,26.33,6.14,30.58,1014.92,2056.99,3132.85,3027.11,3284.98,349.63,329.88,7.47,0000 0000 0000 0000 000000
2014-01-24 02:27:27,0.16,1.12,0.00,16.90,22.84,26.33,6.24,30.46,1014.90,2056.99,3132.32,3026.83,3284.47,350.32,330.53,7.48,0000 0000 0000 0000 000000
2014-01-24 02:28:27,0.20,1.12,0.00,16.91,22.84,26.31,6.04,30.33,1014.82,2056.96,3131.86,3026.36,3284.17,349.34,329.56,7.48,0000 0000 0000 0000 000000
2014-01-24 02:29:28,0.20,1.13,0.00,16.90,22.84,26.31,6.21,30.67,1014.92,2056.97,3131.33,3026.11,3283.86,349.92,330.16,7.49,0000 0000 0000 0000 000000
2014-01-24 02:30:28,0.20,1.13,0.00,16.90,22.85,26.29,6.17,30.54,1014.92,2056.98,3130.88,3025.73,3283.34,349.21,329.75,7.50,0000 0000 0000 0000 000000
2014-01-24 02:31:28,0.23,1.13,0.00,16.92,22.85,26.30,6.24,30.50,1015.00,2056.99,3130.35,3025.29,3283.12,349.41,329.67,7.50,0000 0000 0000 0000 000000
2014-01-24 02:32:28,0.19,1.13,0.00,16.91,22.85,26.32,6.16,30.38,1015.04,2056.99,3130.03,3025.10,3282.81,349.39,330.10,7.51,0000 0000 0000 0000 000000
2014-01-24 02:33:29,0.15,1.13,0.00,16.91,22.85,26.32,6.21,30.29,1015.08,2056.98,3129.46,3024.88,3282.32,349.88,330.27,7.51,0000 0000 0000 0000 000000
2014-01-24 02:34:29,0.20,1.13,0.00,16.91,22.86,26.28,6.04,30.42,1015.09,2056.99,3129.16,3024.36,3282.11,349.82,330.32,7.52,0000 0000 0000 0000 000000
2014-01-24 02:35:29,0.18,1.13,0.00,16.92,22.86,26.29,6.06,30.46,1015.11,2056.99,3128.74,3024.13,3281.81,349.65,330.08,7.52,0000 0000 0000 0000 000000
2014-01-24 02:36:29,0.15,1.13,0.00,16.92,22.87,26.31,6.28,30.46,1015.12,2056.97,3128.27,3024.00,3281.33,350.06,330.33,7.53,0000 0000 0000 0000 000000
2014-01-24 02:37:30,0.17,1.13,0.00,16.92,22.87,26.36,6.24,30.38,1015.07,2056.98,3127.92,3023.57,3281.11,349.93,330.16,7.54,0000 0000 0000 0000 000000